[[{"header":{"parameterUnit":"m.s-1","parameterCategory":1,"la1":30.2991,"la2":30.254,"lo1":-89.0895,"lo2":-89.0444,"dy":0.0017,"dx":0.0017,"nx":28,"ny":28,"refTime":"2023-11-04T03:00:00:Z","depth":0,"parameterNumber":2,"parameterNumberName":"U-component_of_WINDS"},"data":[0,0,0,0,0,0,0,0,0,0,0,0,0,0,0,0,0,0,0,0,0,0,0,0,0,0,0,0,0,0,0,0,0,0,0,0,0,0,0,0,0,0,0,0,0,0,0,0,0,0,0,0,0,0,0,0,0,0,-1.1587,-1.1588,0,-1.1705,-1.1707,-1.1708,-1.1669,-1.1666,-1.1664,-1.1661,-1.1785,-1.179,-1.1796,0,0,0,0,0,0,0,0,0,0,0,0,0,-1.133,-1.1335,-1.1587,-1.1588,-1.159,-1.1705,-1.1707,-1.1708,-1.1669,-1.1666,-1.1663,-1.166,-1.1783,-1.1789,-1.1796,0,0,0,0,0,0,0,0,0,0,0,0,0,-1.1445,-1.1337,-1.1587,-1.1584,-1.1585,-1.1705,-1.1707,-1.1709,-1.167,-1.1666,-1.1662,-1.1659,-1.178,-1.1789,-1.1797,-1.1927,0,0,-1.1823,-1.1827,0,0,0,0,0,0,0,0,-1.1438,-1.1454,-1.1583,-1.1585,-1.1586,-1.1668,-1.1661,-1.1782,-1.1671,-1.1638,-1.1661,-1.1657,-1.1749,-1.176,-1.1791,-1.1932,-1.1938,-1.1824,-1.1829,-1.1833,-1.1835,0,0,0,0,0,0,0,-1.143,-1.1449,-1.1634,-1.1585,-1.1587,-1.1578,-1.159,-1.1684,-1.1714,-1.1641,-1.1638,-1.1652,-1.1749,-1.1783,-1.1793,-1.1939,-1.1824,-1.1831,-1.1836,-1.184,-1.2196,-1.22,0,0,0,0,0,0,-1.1421,-1.1442,-1.163,-1.1637,-1.1501,-1.1586,-1.1599,-1.1646,-1.1713,-1.1719,-1.1656,-1.165,-1.177,-1.1783,-1.1797,-1.1955,-1.1833,-1.1841,-1.1845,-1.2191,-1.2197,-1.2201,0,0,0,0,0,0,-1.1416,-1.1438,-1.1625,-1.1539,-1.1562,-1.1595,-1.1647,-1.165,-1.1684,-1.1724,-1.1729,-1.1684,-1.1767,-1.1785,-1.1895,-1.1959,-1.1844,-1.1852,-1.2186,-1.2193,-1.2199,-1.2271,0,0,0,0,0,0,-1.1409,-1.1437,-1.1485,-1.1541,-1.1567,-1.172,-1.1651,-1.1655,-1.1698,-1.1692,-1.1752,-1.1758,-1.1766,-1.1883,-1.1904,-1.1969,-1.1859,-1.2181,-1.2189,-1.2197,-1.2263,-1.2279,-1.2293,0,0,0,0,0,-1.14,-1.1501,-1.1488,-1.1511,-1.1629,-1.1724,-1.1739,-1.1745,-1.1703,-1.1753,-1.178,-1.1756,-1.1948,-1.1894,-1.1917,-1.1986,-1.2177,-1.2187,-1.2196,-1.2256,-1.2276,-1.2293,0,0,0,0,0,0,-1.1453,-1.1508,-1.1494,-1.1616,-1.1666,-1.1717,-1.178,-1.1765,-1.1828,-1.182,-1.1825,-1.1839,-1.1953,-1.198,-1.1919,-1.2116,-1.2056,-1.2071,-1.2094,-1.2113,-1.2128,-1.212,-1.1866,0,0,0,0,0,-1.1478,-1.155,-1.1595,-1.1699,-1.1724,-1.1748,-1.179,-1.179,-1.1842,-1.1863,-1.1897,-1.1949,-1.2021,-1.2068,-1.2136,-1.2266,-1.228,-1.2325,-1.234,-1.2352,-1.2366,-1.2439,-1.246,-1.2234,-1.2234,-1.2233,0,0,-1.1533,-1.1572,-1.1617,-1.171,-1.1749,-1.1825,-1.1766,-1.1848,-1.1905,-1.1875,-1.1982,-1.2009,-1.2067,-1.2188,-1.2243,-1.2214,-1.2431,-1.2365,-1.2374,-1.2381,-1.2451,-1.2472,-1.2491,-1.224,-1.2239,-1.2238,0,0,-1.1671,-1.1706,-1.1798,-1.1837,-1.1896,-1.1912,-1.1934,-1.1988,-1.2005,-1.2111,-1.2091,-1.2159,-1.2282,-1.2325,-1.2363,-1.2519,-1.2501,-1.2541,-1.262,-1.2691,-1.2709,-1.2725,-1.2783,-1.2803,-1.2554,-1.2554,-1.2554,0,-1.1731,-1.1843,-1.1846,-1.1931,-1.1974,-1.195,-1.2043,-1.2082,-1.216,-1.2191,-1.2157,-1.2313,-1.235,-1.2482,-1.252,-1.2551,-1.2578,-1.2535,-1.2706,-1.2722,-1.2737,-1.2792,-1.2813,-1.2559,-1.2558,-1.2558,-1.2558,0,-1.1916,-1.1994,-1.2061,-1.2137,-1.2187,-1.2276,-1.2293,-1.2344,-1.234,-1.2359,-1.2469,-1.2513,-1.2591,-1.2622,-1.2619,-1.2754,-1.2735,-1.2704,-1.2644,-1.2763,-1.2815,-1.2836,-1.2566,-1.2564,-1.2563,-1.2561,0,0,-1.209,-1.2168,-1.2193,-1.2228,-1.2292,-1.2353,-1.2441,-1.2517,-1.2561,-1.2616,-1.2692,-1.2797,-1.2769,-1.2812,-1.2814,-1.2876,-1.3,-1.2838,-1.2839,-1.2868,-1.3154,-1.3179,-1.3203,-1.2987,-1.2991,-1.2994,-1.315,0,-1.2235,-1.239,-1.2396,-1.2537,-1.2611,-1.259,-1.2667,-1.2715,-1.2736,-1.2803,-1.2826,-1.2902,-1.2858,-1.2884,-1.2944,-1.2972,-1.3058,-1.296,-1.3059,-1.3063,-1.3047,-1.323,-1.3255,-1.34,-1.317,-1.3173,-1.3176,0,-1.2424,-1.2486,-1.2635,-1.269,-1.2721,-1.279,-1.2861,-1.2924,-1.2979,-1.299,-1.3039,-1.3032,-1.3124,-1.306,-1.3188,-1.3122,-1.3163,-1.3182,-1.3188,-1.3199,-1.3128,-1.3248,-1.3446,-1.3468,-1.3208,-1.3205,-1.3203,0,-1.254,-1.266,-1.2765,-1.2795,-1.2861,-1.2911,-1.2941,-1.2992,-1.3038,-1.31,-1.313,-1.3202,-1.3242,-1.3299,-1.3312,-1.3264,-1.3441,-1.3378,-1.3454,-1.3454,-1.3493,-1.3491,-1.3703,-1.3517,-1.3516,-1.3516,-1.3515,0,-1.2702,-1.2794,-1.2818,-1.2883,-1.2986,-1.2993,-1.3095,-1.3122,-1.3168,-1.3238,-1.3224,-1.3291,-1.3304,-1.3374,-1.3385,-1.349,-1.3508,-1.352,-1.3522,-1.3523,-1.3521,-1.3551,-1.3542,-1.3522,-1.352,-1.3519,-1.3518,0,-1.2848,-1.2867,-1.2981,-1.3035,-1.3051,-1.3125,-1.3171,-1.3234,-1.3253,-1.3343,-1.3365,-1.3396,-1.3477,-1.3496,-1.3593,-1.36,-1.3726,-1.3717,-1.3708,-1.3707,-1.3784,-1.3777,-1.4023,-1.4057,-1.3847,-1.3849,-1.385,0,-1.2951,-1.3022,-1.3084,-1.313,-1.3162,-1.3237,-1.3284,-1.3293,-1.3343,-1.3412,-1.3467,-1.3547,-1.3612,-1.3744,-1.3776,-1.385,-1.3845,-1.3926,-1.3856,-1.3855,-1.3848,-1.3845,-1.3853,-1.394,-1.3942,-1.3944,-1.3945,0,-1.3133,-1.3139,-1.3207,-1.3279,-1.3336,-1.3393,-1.3448,-1.3487,-1.3504,-1.3561,-1.3644,-1.3694,-1.3794,-1.3875,-1.395,-1.3981,-1.3968,-1.3967,-1.3989,-1.3991,-1.3983,-1.3991,-1.3746,-1.3962,-1.396,-1.3959,-1.3958,-1.3957,-1.3262,-1.3325,-1.3378,-1.3455,-1.3497,-1.3549,-1.3612,-1.3639,-1.3709,-1.3791,-1.3792,-1.3884,-1.3938,-1.4038,-1.4075,-1.4147,-1.4122,-1.4154,-1.4162,-1.417,-1.4178,-1.397,-1.4161,-1.416,-1.416,-1.4159,-1.4159,0,-1.3444,-1.3478,-1.3549,-1.3626,-1.3687,-1.3667,-1.3727,-1.378,-1.3861,-1.3913,-1.3977,-1.4074,-1.4153,-1.4191,-1.4269,-1.432,-1.4315,-1.434,-1.4337,-1.4345,-1.4195,-1.4169,-1.4342,-1.4342,-1.4342,-1.4342,-1.4342,-1.4342,-1.3546,-1.3652,-1.3665,-1.3793,-1.3826,-1.3916,-1.3952,-1.4,-1.4042,-1.4151,-1.4216,-1.424,-1.4288,-1.4369,-1.4441,-1.445,-1.448,-1.4509,-1.4515,-1.4374,-1.4356,-1.4338,-1.4314,-1.4515,-1.4515,-1.466,-1.4661,-1.4662]},{"header":{"parameterUnit":"m.s-1","parameterCategory":1,"la1":30.2991,"la2":30.254,"lo1":-89.0895,"lo2":-89.0444,"dy":0.0017,"dx":0.0017,"nx":28,"ny":28,"refTime":"2023-11-04T03:00:00:Z","depth":0,"parameterNumber":3,"parameterNumberName":"V-component_of_WINDS"},"data":[0,0,0,0,0,0,0,0,0,0,0,0,0,0,0,0,0,0,0,0,0,0,0,0,0,0,0,0,0,0,0,0,0,0,0,0,0,0,0,0,0,0,0,0,0,0,0,0,0,0,0,0,0,0,0,0,0,0,-2.2777,-2.2777,0,-2.2794,-2.2794,-2.2794,-2.2784,-2.2784,-2.2783,-2.2783,-2.2799,-2.28,-2.2801,0,0,0,0,0,0,0,0,0,0,0,0,0,-2.2734,-2.2735,-2.2777,-2.2777,-2.2777,-2.2794,-2.2794,-2.2794,-2.2784,-2.2784,-2.2783,-2.2782,-2.2799,-2.28,-2.2801,0,0,0,0,0,0,0,0,0,0,0,0,0,-2.2752,-2.2735,-2.2777,-2.2774,-2.2774,-2.2794,-2.2794,-2.2794,-2.2784,-2.2784,-2.2783,-2.2782,-2.2798,-2.28,-2.2801,-2.2824,0,0,-2.2805,-2.2806,0,0,0,0,0,0,0,0,-2.2751,-2.2753,-2.2774,-2.2775,-2.2774,-2.2786,-2.2785,-2.2804,-2.2784,-2.278,-2.2783,-2.2782,-2.2795,-2.2797,-2.2802,-2.2825,-2.2825,-2.2805,-2.2806,-2.2807,-2.2807,0,0,0,0,0,0,0,-2.275,-2.2753,-2.2784,-2.2775,-2.2775,-2.2772,-2.2773,-2.2789,-2.2792,-2.2781,-2.278,-2.2782,-2.2795,-2.28,-2.2802,-2.2826,-2.2805,-2.2806,-2.2807,-2.2808,-2.2867,-2.2868,0,0,0,0,0,0,-2.2749,-2.2752,-2.2783,-2.2784,-2.2761,-2.2773,-2.2775,-2.2783,-2.2792,-2.2792,-2.2783,-2.2782,-2.2798,-2.28,-2.2803,-2.2829,-2.2807,-2.2808,-2.2809,-2.2866,-2.2867,-2.2868,0,0,0,0,0,0,-2.2748,-2.2752,-2.2782,-2.2768,-2.2771,-2.2775,-2.2784,-2.2784,-2.2789,-2.2793,-2.2794,-2.2788,-2.2798,-2.2801,-2.2818,-2.2829,-2.2809,-2.281,-2.2865,-2.2866,-2.2868,-2.2882,0,0,0,0,0,0,-2.2747,-2.2751,-2.2761,-2.2768,-2.2772,-2.2799,-2.2784,-2.2785,-2.2792,-2.279,-2.2798,-2.2798,-2.2798,-2.2817,-2.282,-2.2831,-2.2811,-2.2864,-2.2866,-2.2867,-2.2881,-2.2884,-2.2886,0,0,0,0,0,-2.2745,-2.2764,-2.2761,-2.2765,-2.2784,-2.2799,-2.2802,-2.2801,-2.2792,-2.2801,-2.2804,-2.2798,-2.2828,-2.2818,-2.2822,-2.2834,-2.2864,-2.2865,-2.2867,-2.288,-2.2883,-2.2886,0,0,0,0,0,0,-2.2758,-2.2765,-2.2762,-2.2784,-2.2791,-2.2798,-2.2809,-2.2805,-2.2814,-2.2813,-2.2811,-2.2812,-2.2831,-2.2834,-2.2824,-2.2855,-2.2844,-2.2847,-2.2853,-2.2856,-2.2859,-2.2857,-2.2812,0,0,0,0,0,-2.2764,-2.2776,-2.2781,-2.28,-2.2804,-2.2806,-2.2813,-2.2811,-2.2818,-2.2821,-2.2825,-2.2832,-2.2842,-2.285,-2.286,-2.2881,-2.2882,-2.2891,-2.2894,-2.2896,-2.2898,-2.2908,-2.2912,-2.2874,-2.2874,-2.2874,0,0,-2.2775,-2.278,-2.2788,-2.2803,-2.2808,-2.282,-2.2809,-2.2822,-2.2831,-2.2823,-2.284,-2.2843,-2.285,-2.287,-2.2879,-2.2873,-2.2909,-2.2898,-2.29,-2.2901,-2.2911,-2.2914,-2.2917,-2.2875,-2.2875,-2.2874,0,0,-2.2802,-2.2808,-2.2823,-2.2829,-2.2837,-2.2838,-2.2842,-2.2848,-2.285,-2.2867,-2.2861,-2.2871,-2.289,-2.2895,-2.29,-2.2927,-2.2922,-2.2931,-2.2945,-2.2955,-2.2958,-2.2961,-2.297,-2.2973,-2.2933,-2.2933,-2.2933,0,-2.2815,-2.2833,-2.2832,-2.2846,-2.2852,-2.2845,-2.2861,-2.2866,-2.2877,-2.2881,-2.2875,-2.2897,-2.2902,-2.2922,-2.2929,-2.2933,-2.2937,-2.293,-2.2958,-2.2961,-2.2963,-2.2971,-2.2975,-2.2934,-2.2934,-2.2934,-2.2934,0,-2.2848,-2.2861,-2.2873,-2.2883,-2.2891,-2.2905,-2.2905,-2.2913,-2.2911,-2.2912,-2.2928,-2.2934,-2.2944,-2.2949,-2.2947,-2.2968,-2.2964,-2.2958,-2.2947,-2.2968,-2.2975,-2.2979,-2.2935,-2.2935,-2.2935,-2.2934,0,0,-2.2884,-2.2893,-2.2897,-2.2901,-2.2909,-2.2919,-2.2932,-2.2943,-2.2949,-2.2956,-2.2967,-2.2983,-2.2976,-2.2982,-2.2981,-2.299,-2.3009,-2.2982,-2.2982,-2.2986,-2.3032,-2.3036,-2.304,-2.3006,-2.3007,-2.3007,-2.3031,0,-2.2911,-2.2935,-2.2934,-2.2956,-2.2967,-2.296,-2.2972,-2.2978,-2.2979,-2.2988,-2.2989,-2.3,-2.2992,-2.2995,-2.3004,-2.3005,-2.3018,-2.3004,-2.3015,-2.3016,-2.3013,-2.3044,-2.3049,-2.3071,-2.3034,-2.3035,-2.3035,0,-2.2945,-2.2953,-2.2977,-2.2982,-2.2986,-2.2997,-2.3005,-2.3014,-2.302,-2.302,-2.3026,-2.3023,-2.3036,-2.3024,-2.3042,-2.3032,-2.3036,-2.3038,-2.3039,-2.3039,-2.3026,-2.3044,-2.3078,-2.3081,-2.304,-2.304,-2.3039,0,-2.2968,-2.2985,-2.3,-2.3004,-2.3011,-2.3018,-2.3021,-2.3026,-2.3032,-2.3039,-2.3043,-2.3052,-2.3056,-2.3063,-2.3062,-2.3054,-2.3079,-2.3068,-2.3079,-2.3079,-2.3084,-2.3084,-2.3118,-2.3088,-2.3088,-2.3088,-2.3088,0,-2.2997,-2.3012,-2.301,-2.302,-2.3035,-2.3033,-2.3048,-2.3051,-2.3055,-2.3064,-2.3059,-2.3068,-2.3066,-2.3075,-2.3074,-2.3088,-2.309,-2.309,-2.3089,-2.309,-2.309,-2.3093,-2.3091,-2.3089,-2.3089,-2.3089,-2.3089,0,-2.3025,-2.3025,-2.3042,-2.3046,-2.3047,-2.3058,-2.3062,-2.307,-2.3071,-2.3083,-2.3085,-2.3086,-2.3096,-2.3095,-2.3107,-2.3106,-2.3122,-2.3121,-2.312,-2.312,-2.313,-2.3129,-2.3167,-2.3171,-2.314,-2.314,-2.314,0,-2.3044,-2.3054,-2.3059,-2.3065,-2.3068,-2.3078,-2.3084,-2.3082,-2.3088,-2.3094,-2.3102,-2.3111,-2.3118,-2.3134,-2.3135,-2.3143,-2.3141,-2.3154,-2.3142,-2.3142,-2.314,-2.3139,-2.314,-2.3156,-2.3156,-2.3157,-2.3157,0,-2.3076,-2.3075,-2.3084,-2.3091,-2.3098,-2.3104,-2.311,-2.3115,-2.3113,-2.312,-2.313,-2.3135,-2.3146,-2.3155,-2.3163,-2.3165,-2.316,-2.316,-2.3163,-2.3164,-2.3163,-2.3162,-2.3126,-2.3159,-2.3159,-2.3159,-2.3159,-2.3159,-2.3099,-2.3108,-2.3112,-2.3121,-2.3125,-2.313,-2.3138,-2.3139,-2.3147,-2.3156,-2.3154,-2.3165,-2.3169,-2.3179,-2.3182,-2.319,-2.3185,-2.3189,-2.319,-2.3191,-2.3192,-2.3162,-2.3191,-2.3191,-2.3191,-2.3191,-2.3191,0,-2.3131,-2.3133,-2.3141,-2.3149,-2.3156,-2.315,-2.3156,-2.3162,-2.3171,-2.3176,-2.3182,-2.3193,-2.3201,-2.3203,-2.321,-2.3216,-2.3214,-2.3218,-2.3217,-2.3218,-2.3196,-2.3192,-2.322,-2.322,-2.322,-2.322,-2.322,-2.322,-2.3148,-2.3162,-2.3161,-2.3176,-2.3178,-2.3188,-2.3192,-2.3196,-2.3199,-2.3211,-2.3218,-2.3219,-2.3222,-2.3229,-2.3236,-2.3236,-2.3239,-2.3244,-2.3243,-2.3223,-2.322,-2.3217,-2.3213,-2.3245,-2.3245,-2.3264,-2.3264,-2.3264]}]]